Home > Weather > Walsrode > Past weeks

Flag for Germany Weather for the Past 2 Weeks in Walsrode, Lower Saxony, Germany

Now
73 °F

Scattered clouds.


Feels Like: 76 °F
Forecast: 54 / 73 °F
Wind: 12 mph from South

Location: Fassberg

Current Time: May 6, 2016 at 7:18:19 PM

Latest Report: May 6, 2016 at 6:20 PM


Visibility: N/A

Pressure: 29.98 "Hg

Humidity: 27%

Dew Point: 37 °F

Location of WalsrodeLocation

Historic Weather in Walsrode — Graph

°F

Walsrode Temperature Yesterday

Maximum temperature yesterday: 64 °F (at 3:20 PM)
Minimum temperature yesterday: 30 °F (at 4:20 AM)
Average temperature yesterday: 50 °F

High & Low Weather Summary for the Past Weeks

 TemperatureHumidityPressure
High75 °F (May 6, 5:20 PM)100% (Apr 22, 5:20 AM)30.39 "Hg (Apr 22, 5:20 AM)
Low27 °F (Apr 25, 3:20 AM)25% (May 2, 4:20 PM)29.39 "Hg (Apr 26, 1:20 PM)
Average44 °F72%29.96 "Hg
* Reported Apr 21 5:20 PM — May 6 5:20 PM, Walsrode, Weather by CustomWeather, © 2016

Note: Actual official high and low records may vary slightly from our data, if they occured in-between our weather recording intervals... More about our weather records

Advertising

Walsrode Weather History for the Previous 24 Hours

Scroll right to see more
 ConditionsComfort  
Time TempWeatherWind HumidityBarometerVisibility
5:20 PM
Fri, May 6
75 °FScattered clouds.12 mph27%29.98 "HgN/A
4:20 PM73 °FScattered clouds.17 mph29%30.01 "HgN/A
3:20 PM73 °FScattered clouds.14 mph29%30.04 "HgN/A
2:20 PM73 °FPartly sunny.16 mph31%30.04 "HgN/A
1:20 PM72 °FPartly sunny.16 mph38%30.07 "HgN/A
12:20 PM70 °FPartly sunny.17 mph38%30.07 "HgN/A
11:20 AM68 °FPartly sunny.14 mph46%30.09 "HgN/A
10:20 AM66 °FPartly sunny.10 mph49%30.09 "HgN/A
9:20 AM61 °FScattered clouds.8 mph55%30.12 "HgN/A
8:20 AM55 °FScattered clouds.7 mph63%30.12 "HgN/A
7:20 AM48 °FPartly sunny.5 mph76%30.15 "HgN/A
6:20 AM43 °FPassing clouds.7 mph81%30.15 "HgN/A
5:20 AM43 °FPassing clouds.5 mph76%30.15 "HgN/A
4:20 AM43 °FPassing clouds.7 mph76%30.15 "HgN/A
3:20 AM43 °FPassing clouds.7 mph76%30.18 "HgN/A
2:20 AM46 °FPassing clouds.5 mph71%30.18 "HgN/A
1:20 AM45 °FPassing clouds.5 mph76%30.18 "HgN/A
12:20 AM46 °FPassing clouds.5 mph71%30.18 "HgN/A
11:20 PM
Thu, May 5
48 °FPassing clouds.6 mph66%30.21 "HgN/A
10:20 PM48 °FPassing clouds.7 mph66%30.21 "HgN/A
9:20 PM52 °FScattered clouds.6 mph62%30.21 "HgN/A
8:20 PM59 °FPassing clouds.7 mph48%30.21 "HgN/A
7:20 PM63 °FPassing clouds.10 mph39%30.21 "HgN/A
Weather by CustomWeather, © 2016

See weather overviewHow to use our weather pages